Location: Unnamed
(29.8582°N, 98.1264°W)
Time: 23:34:47
(UTC-06:00)

BlueWalker 3 - Visible Passes

Search period start: 17 January 2026 00:00
Search period end: 27 January 2026 00:00
Orbit: 451 x 463 km, 53.2° (Epoch: 17 January)

Date Brightness Start Highest point End Pass type
(mag) Time Alt. Az. Time Alt. Az. Time Alt. Az.
17 Jan 3.0 19:52:22 10° WSW 19:55:01 40° W 19:55:01 40° W visible
18 Jan 1.8 19:16:55 10° SW 19:20:27 71° NW 19:21:39 38° NNE visible
19 Jan 1.7 18:41:34 10° SW 18:45:07 78° SE 18:48:12 13° NE visible
20 Jan 4.4 19:45:42 10° WNW 19:47:29 13° NW 19:48:25 12° NNW visible
21 Jan 4.2 19:09:35 10° W 19:12:00 17° NW 19:14:25 10° N visible
22 Jan 3.8 18:33:41 10° W 18:36:32 22° NW 18:39:24 10° NNE visible
